Weather History for KPMD - August, 2014

Change the Weather History Date:

Friday, August 1, 2014

  Actual Average Record
Temperature  
Mean Temperature 89 °F 83 °F  
Max Temperature 104 °F 99 °F 110 °F (1951)
Min Temperature 74 °F 67 °F 52 °F (1933)
Degree Days  
Heating Degree Days 0 0  
Month to date heating degree days 0 0  
Since 1 June heating degree days 0 7  
Since 1 July heating degree days 0 0  
Cooling Degree Days 24 18  
Month to date cooling degree days 24 18  
Year to date cooling degree days 1249 996  
Since 1 June cooling degree days 1030 826  
Growing Degree Days 38 (Base 50)    
Moisture  
Dew Point 45 °F    
Average Humidity 25    
Maximum Humidity 38    
Minimum Humidity 12    
Precipitation  
Precipitation 0.00 in 0.00 in 0.11 in (1959)
Month to date precipitation 0.00 0.00  
Year to date precipitation 3.05 5.42  
Since 1 July precipitation T 0.10  
Snow  
Snow 0.00 in - 0.00 in (1973)
Month to date snowfall 0.0  
Since 1 June snowfall 0.0  
Since 1 July snowfall 0.0  
Snow Depth 0.00 in    
Sea Level Pressure  
Sea Level Pressure 29.86 in    
Wind  
Wind Speed 10 mph (SW)    
Max Wind Speed 25 mph    
Max Gust Speed 30 mph    
Visibility 10 miles    
Events      
T = Trace of Precipitation, MM = Missing Value Source: NWS Daily Summary

Daily Weather History Graph

Daily Weather History Graph

Search for Another Location

Airport or City:

Trip Planner

Search our weather history database for the weather conditions in past years. The results will help you decide how hot, cold, wet, or windy it might be!

Date:

Astronomy

Aug. 01, 2014 Rise Set
Actual Time 6:02 AM PDT 7:54 PM PDT
Civil Twilight 5:34 AM PDT 8:21 PM PDT
Nautical Twilight 5:01 AM PDT 8:55 PM PDT
Astronomical Twilight 4:25 AM PDT 9:30 PM PDT
Moon 11:15 AM PDT (8/1) 10:57 PM PDT (8/1)
Length of Visible Light 14h 46m
Length of Day
13h 51m
Waxing Crescent, 28% of the Moon is Illuminated
Aug 1
Waxing Crescent
Aug 3
First Quarter
Aug 10
Full
Aug 17
Last Quarter
Aug 25
New

Hourly Weather History & Observations

Time (PDT) Temp. Dew Point Humidity Pressure Visibility Wind Dir Wind Speed Gust Speed Precip Events Conditions
12:53 AM 80.1 °F 46.0 °F 30% 29.87 in 10.0 mi SSW 10.4 mph - N/A   Clear
1:53 AM 80.1 °F 45.0 °F 29% 29.86 in 10.0 mi SSW 10.4 mph - N/A   Clear
2:53 AM 80.1 °F 46.0 °F 30% 29.86 in 10.0 mi South 9.2 mph - N/A   Clear
3:53 AM 75.9 °F 46.0 °F 35% 29.86 in 10.0 mi SSW 8.1 mph - N/A   Clear
4:53 AM 75.9 °F 45.0 °F 33% 29.86 in 10.0 mi SSW 8.1 mph - N/A   Clear
5:53 AM 73.9 °F 46.0 °F 37% 29.88 in 10.0 mi SSW 8.1 mph - N/A   Clear
6:53 AM 77.0 °F 46.9 °F 34% 29.88 in 10.0 mi SSW 9.2 mph - N/A   Clear
7:53 AM 82.9 °F 46.0 °F 27% 29.89 in 10.0 mi Calm Calm - N/A   Clear
8:53 AM 90.0 °F 44.1 °F 20% 29.88 in 10.0 mi Variable 3.5 mph - N/A   Clear
9:53 AM 93.0 °F 44.1 °F 18% 29.88 in 10.0 mi ESE 3.5 mph - N/A   Clear
10:53 AM 95.0 °F 41.0 °F 15% 29.88 in 10.0 mi Variable 4.6 mph - N/A   Clear
11:53 AM 98.1 °F 39.9 °F 13% 29.87 in 10.0 mi West 3.5 mph - N/A   Clear
12:53 PM 102.0 °F 39.0 °F 11% 29.85 in 10.0 mi Variable 4.6 mph - N/A   Clear
1:53 PM 100.9 °F 39.9 °F 12% 29.84 in 10.0 mi South 8.1 mph 20.7 mph N/A   Clear
3:53 PM 102.0 °F 39.9 °F 12% 29.81 in 10.0 mi WSW 21.9 mph - N/A   Clear
4:53 PM 100.0 °F 45.0 °F 15% 29.81 in 10.0 mi WSW 23.0 mph - N/A   Clear
5:53 PM 98.1 °F 45.0 °F 16% 29.81 in 10.0 mi West 23.0 mph 26.5 mph N/A   Clear
6:53 PM 95.0 °F 48.0 °F 20% 29.82 in 10.0 mi WNW 15.0 mph - N/A   Clear
7:53 PM 90.0 °F 46.9 °F 23% 29.83 in 10.0 mi West 9.2 mph - N/A   Clear
8:53 PM 87.1 °F 46.9 °F 25% 29.84 in 10.0 mi West 12.7 mph - N/A   Clear
9:53 PM 84.0 °F 48.0 °F 28% 29.87 in 10.0 mi West 10.4 mph - N/A   Clear
10:53 PM 87.1 °F 45.0 °F 23% 29.86 in 10.0 mi SW 12.7 mph - N/A   Clear
11:53 PM 82.9 °F 46.0 °F 27% 29.86 in 10.0 mi SW 12.7 mph - N/A   Clear